TimeCST,TemperatureF,Dew PointF,Humidity,Sea Level PressureIn,VisibilityMPH,Wind Direction,Wind SpeedMPH,Gust SpeedMPH,PrecipitationIn,Events,Conditions,WindDirDegrees,DateUTC
12:53 AM,36.0,30.9,82,30.31,10.0,Calm,Calm,-,N/A,,Clear,0,2012-11-16 06:53:00
1:53 AM,36.0,30.9,82,30.30,10.0,Calm,Calm,-,N/A,,Clear,0,2012-11-16 07:53:00
2:53 AM,34.0,30.9,89,30.30,10.0,Calm,Calm,-,N/A,,Clear,0,2012-11-16 08:53:00
3:53 AM,34.0,30.0,85,30.30,10.0,Calm,Calm,-,N/A,,Clear,0,2012-11-16 09:53:00
4:53 AM,33.1,30.0,89,30.32,10.0,Calm,Calm,-,N/A,,Clear,0,2012-11-16 10:53:00
5:53 AM,32.0,28.9,88,30.32,10.0,Calm,Calm,-,N/A,,Clear,0,2012-11-16 11:53:00
6:53 AM,34.0,30.9,89,30.35,9.0,Calm,Calm,-,N/A,,Clear,0,2012-11-16 12:53:00
7:53 AM,41.0,33.1,73,30.36,9.0,Calm,Calm,-,N/A,,Clear,0,2012-11-16 13:53:00
8:53 AM,46.0,35.1,66,30.38,10.0,NNE,5.8,-,N/A,,Clear,20,2012-11-16 14:53:00
9:53 AM,51.1,35.1,54,30.38,10.0,North,3.5,-,N/A,,Clear,10,2012-11-16 15:53:00
10:53 AM,55.9,34.0,44,30.37,10.0,NE,5.8,-,N/A,,Clear,50,2012-11-16 16:53:00
11:53 AM,59.0,32.0,36,30.33,10.0,Variable,6.9,-,N/A,,Clear,0,2012-11-16 17:53:00
12:53 PM,60.1,28.9,31,30.31,10.0,NNE,9.2,-,N/A,,Clear,30,2012-11-16 18:53:00
1:53 PM,61.0,28.0,29,30.30,10.0,North,9.2,-,N/A,,Clear,10,2012-11-16 19:53:00
2:53 PM,62.1,28.0,28,30.30,10.0,North,10.4,-,N/A,,Clear,10,2012-11-16 20:53:00
3:53 PM,59.0,28.0,31,30.30,10.0,North,9.2,-,N/A,,Clear,10,2012-11-16 21:53:00
4:53 PM,51.1,30.9,46,30.32,10.0,NNE,5.8,-,N/A,,Clear,20,2012-11-16 22:53:00
5:53 PM,48.9,30.0,48,30.33,10.0,NNE,6.9,-,N/A,,Clear,20,2012-11-16 23:53:00
6:53 PM,45.0,30.0,56,30.35,10.0,North,6.9,-,N/A,,Clear,10,2012-11-17 00:53:00
7:53 PM,44.1,30.9,60,30.35,10.0,North,6.9,-,N/A,,Clear,10,2012-11-17 01:53:00
8:53 PM,46.9,30.9,54,30.35,10.0,NNE,9.2,-,N/A,,Clear,20,2012-11-17 02:53:00
9:53 PM,46.9,30.0,52,30.35,10.0,NE,3.5,-,N/A,,Clear,50,2012-11-17 03:53:00
10:53 PM,41.0,30.9,67,30.36,10.0,NNE,3.5,-,N/A,,Clear,20,2012-11-17 04:53:00
11:53 PM,37.0,30.9,79,30.37,10.0,Calm,Calm,-,N/A,,Clear,0,2012-11-17 05:53:00